Regional Weather Roundup
Issued by NWS

Home | Current Version | Previous Version | Text Only | Print | Product List | Glossary Off
Versions: 1 2 3 4 5 6 7 8 9 10 11 12 13 14 15 16 17 18 19 20 21 22 23 24 25 26 27 28 29 30 31 32 33 34 35 36 37 38 39 40 41 42 43 44 45 46 47 48 49 50

464
ASUS43 KFSD 062302
RWRSD

WEATHER ROUNDUP FOR SOUTH DAKOTA
NATIONAL WEATHER SERVICE SIOUX FALLS SD
600 PM CDT FRI MAY 06 2016

NOTE: "FAIR" INDICATES FEW OR NO CLOUDS BELOW 12,000 FEET WITH NO
SIGNIFICANT WEATHER AND/OR OBSTRUCTIONS TO VISIBILITY.


SDZ001>005-009-010-012>017-070000-
NORTHWEST AND NORTH CENTRAL SOUTH DAKOTA

CITY           SKY/WX    TMP DP  RH WIND       PRES   REMARKS
BUFFALO          N/A     72  46  39 N20G29    29.97S
FAITH            N/A     73  46  38 NE25G32   29.94S
MOBRIDGE       MOSUNNY   77  46  33 N20G32    29.90R
$$

SDZ012>016-024>037-041>051-057-063-072>074-070000-
SOUTHWEST AND SOUTH CENTRAL SOUTH DAKOTA

CITY           SKY/WX    TMP DP  RH WIND       PRES   REMARKS
RAPID CTY ARPT CLOUDY    72  51  47 N18       29.98R
PIERRE         CLOUDY    81  50  33 N26G36    29.84R
CUSTER         CLOUDY    63  43  48 N16G28    30.07R
ELLSWORTH AFB  CLOUDY    72  49  43 N22       29.99R
PHILIP         CLOUDY    77  53  43 NE18G29   29.88R
PINE RIDGE     MOSUNNY   78  53  41 N17G25    29.90F
WINNER         FAIR      86  56  35 NW5       29.81F
$$

SDZ004>011-016>023-039-040-070000-
NORTHEAST SOUTH DAKOTA

CITY           SKY/WX    TMP DP  RH WIND       PRES   REMARKS
ABERDEEN       CLOUDY    80  45  28 NE24G36   29.85R
WATERTOWN      CLOUDY    76  45  33 N9G24     29.84R
BROOKINGS      SUNNY     83  53  35 W10       29.78S
SISSETON         N/A     77  42  28 N26G32    29.82R
$$

SDZ017-020-022-023-036>040-048>070-070000-
SOUTHEAST SOUTH DAKOTA

CITY           SKY/WX    TMP DP  RH WIND       PRES   REMARKS
SIOUX FALLS    PTSUNNY   85  50  29 W7        29.79R
HURON          MOSUNNY   84  51  31 N12       29.77S
MITCHELL       CLOUDY    85  57  38 W7        29.78S
YANKTON        SUNNY     88  48  25 SW13G18   29.78S
$$

ABBREVIATIONS USED IN REMARKS
   TC - TEMPERATURE IN CELSIUS
  WCI - WIND CHILL INDEX
   HX - HEAT INDEX
  VSB - VISIBILITY





USA.gov is the U.S. government's official web portal to all federal, state and local government web resources and services.